Flight Information

DEPARTURE
RAMONA, CA
Elevation:
1394
Runways:
9/27 - 5001x150 - ASPH-G
H1 - 340x66 - ASPH-CONC
ATIS:
132.025
Ground:
121.65
Tower:
119.875
DESTINATION
,
Elevation:
TPA:
1000 (est.)


6737.8 NM75° True-13° Var61° HDG

Flight Plan:
(click to file on line)

1. Type
2. Aircraft Identification
3. Aircraft Type / Special Equipment
4. True Airspeed
kts
5. Departure Airport
(ICAO code)
6. Arriving Airport
(ICAO code)
7. Cruising Altitude
ft
8. Alternate Airport
(ICAO code)
9. Route of Flight
10. Remarks


00:00:00 Departure ATIS: Destination ATIS:

Clearance Limit:
Route:
Altitude: Expect in minutes
Frequency:
Transponder: (7500 Hijack / 7600 Lost Comms / 7700 Emergency)


KRNM 211553Z 00000KT 10SM CLR 30/06 A3010 RMK AO2 SLP175 T03000061
Time: 2021-09-21T15:53:00Z
1632242615
Winds: calm
Visibility: 10.0 sm
Clouds (AGL): CLR
Temperature: 30.0 C
Dew Point: 6.1 C
Pressure: 30.100393 in Hgbr


Notes:

Data extracted from FAA Digital Chart Supplement. Effective: 0901Z Thursday, AUG 12, 2021 to 0901Z Thursday, OCT 7, 2021
Current ATIS data is provided courtisy of PilotEdge.